TITAN 3C TRANSTAGE DEB, 26528

Orbit data source: Space-Track

TITAN 3C TRANSTAGE DEB, 26528 is space debris in HEO originally from a launch on Tue, 21 Dec 1965 UTC launched from the Air Force Eastern Test Range (AFETR). Debris objects in space refer to the collection of defunct objects orbiting the Earth. Examples of debris include non-operational satellites, rocket bodies, and fragments generated from explosions, collisions, or faulty payload assembly.

Loading next visibility...
Identifier
26528, 1965-108AP
Orbit
HEO
Last TLE update
1 week ago
Origin
Manufacturer
Unknown
Mission
Spacecraft
Bus & Motor
Unknown
Mass
Unknown
Launch date (UTC)
1965-12-21 (59 years ago)
Launch vehicle
Unknown
Launch site
Air Force Eastern Test Range (AFETR)
Object type
Payload
Rocket body
Debris
Shape & HBR
Unknown
Radar Cross Section
Medium (>0.1 m² and <1 m²)

Expand to show TLE details & history

TLE from 1 week ago
0 TITAN 3C TRANSTAGE DEB
1 26528U 65108AP  25122.27437425  .00000036  00000-0  50312-2 0  9991
2 26528  27.3910  83.7807 6665361  38.5390   4.2652  2.68065005257422
Epoch: 2025-05-02T06:35Z
Definitive object data (Epoch: 2025-05-02T06:35:05.935Z)
Latitude
25.10662°
Longitude
-171.25687°
Altitude
1,298.405 km
Speed
9.256 km/s
True Right ascension
09h 51m 48s
True Declination
24° 59' 03"
Sunlit
Object was in daylight at TLE epoch
Visualization TLE readout
Latitude
-27.38009°
Longitude
29.15756°
Altitude
16,792.515 km
Speed
4.025 km/s
Apparent Right ascension
23h 55m 57s
Apparent Declination
-32° 14' 10"
Sunlit
Object is in daylight
Visualization observer readout
Local Sidereal Time
15:18:58
Azimuth
95.732° ESE
Elevation
-48.824°
Doppler factor
1
Orbital elements
Apogee altitude
30,107.549 km
Perigee altitude
922.43 km
Semi-major axis
21,893.127 km
Eccentricity
0.6665361
Inclination
27.391°
RAAN
83.7807°
Arg. of periapsis
38.539°
True anomaly
27.70352°
Mean anomaly
4.2652°
Eccentric anomaly
12.58863°
Mean motion
0.67001 °/min
BSTAR
0.0050312
Orbital period
537.31 mins
Loading maneuver chart data...
Loading SW <> Apogee altitude chart data...

TITAN 3C TRANSTAGE DEB Visibility forecast

Observer location: undefined°, undefined°

Span
Click to sort rows by Start time (UTC) header in descending order
Start Az.
Max El. time (UTC)
Max El. Az.
Max El.
End time (UTC)
End Az.
361 mins2025-05-09 09:00:01.545Z261.171° W2025-05-09 09:40:01.545Z208.617° SW31.272°2025-05-09 15:01:01.545Z202.304° SSW
26 mins2025-05-10 02:35:01.545Z226.616° WSW2025-05-10 02:40:01.545Z161.862° S33.413°2025-05-10 03:01:01.545Z99.661° ESE
|